Weather History for Pueblo, CO

Change the Weather History Date:

Thursday, February 21, 2013

  Actual Average Record
Temperature  
Mean Temperature 29 °F 35 °F  
Max Temperature 34 °F 52 °F 75 °F (1977)
Min Temperature 23 °F 19 °F -5 °F (1911)
Degree Days  
Heating Degree Days 36 30  
Month to date heating degree days 661 673  
Since 1 July heating degree days 3980 4105  
Cooling Degree Days 0 0  
Month to date cooling degree days 0 0  
Year to date cooling degree days 0 0  
Moisture  
Dew Point 19 °F    
Average Humidity 66    
Maximum Humidity 81    
Minimum Humidity 51    
Precipitation  
Precipitation T in 0.01 in 0.46 in (1894)
Month to date precipitation 0.32 0.20  
Year to date precipitation 0.53 0.55  
Snow  
Snow T in 0.10 in 8.60 in (1894)
Month to date snowfall 2.9 2.9  
Since 1 July snowfall 12.3 20.9  
Snow Depth 2.00 in    
Sea Level Pressure  
Sea Level Pressure 29.76 in    
Wind  
Wind Speed 12 mph (NE)    
Max Wind Speed 29 mph    
Max Gust Speed 37 mph    
Visibility 8 miles    
Events Snow    
T = Trace of Precipitation, MM = Missing Value Source: NWS Daily Summary

Daily Weather History Graph

Daily Weather History Graph

Search for Another Location

Airport:

Trip Planner

Search our weather history database for the weather conditions in past years. The results will help you decide how hot, cold, wet, or windy it might be!

Date:

Astronomy

Feb. 21, 2013 Rise Set
Actual Time 6:40 AM MST 5:43 PM MST
Civil Twilight 6:13 AM MST 6:09 PM MST
Nautical Twilight 5:42 AM MST 6:40 PM MST
Astronomical Twilight 5:12 AM MST 7:11 PM MST
Moon 2:02 PM MST (2/21) 3:44 AM MST (2/21)
Length of Visible Light 11h 56m
Length of Day
11h 02m
Waxing Gibbous, 84% of the Moon is Illuminated
Feb 21
Waxing Gibbous
Feb 25
Full
Mar 4
Last Quarter
Mar 11
New
Mar 19
First Quarter

Hourly Weather History & Observations

Time (MST) Temp. Windchill Dew Point Humidity Pressure Visibility Wind Dir Wind Speed Gust Speed Precip Events Conditions
12:53 AM - - - N/A% 29.55 in - North - - N/A   Unknown
1:53 AM - - - N/A% 29.54 in - North 26.5 mph - N/A   Unknown
2:53 AM 27.0 °F 11.6 °F 21.9 °F 81% 29.59 in 10.0 mi North 26.5 mph - N/A   Unknown
3:06 AM 26.6 °F 10.8 °F 21.2 °F 80% 29.56 in 10.0 mi North 27.6 mph 33.4 mph N/A   Overcast
3:53 AM 26.1 °F 11.0 °F 19.0 °F 75% 29.62 in 10.0 mi NNE 24.2 mph - N/A   Overcast
4:05 AM 26.6 °F 12.4 °F 19.4 °F 74% 29.60 in 10.0 mi North 21.9 mph - N/A   Overcast
4:53 AM 25.0 °F 9.5 °F 18.0 °F 75% 29.66 in 10.0 mi North 24.2 mph - N/A   Overcast
5:53 AM 24.1 °F 8.0 °F 19.0 °F 81% 29.70 in 7.0 mi North 25.3 mph - 0.00 in Snow Light Snow
6:53 AM 23.0 °F 7.2 °F 18.0 °F 81% 29.72 in 2.5 mi North 23.0 mph - 0.00 in Snow Light Snow
7:14 AM 23.0 °F 7.2 °F 17.6 °F 80% 29.67 in 2.5 mi North 23.0 mph - 0.00 in Snow Light Snow
7:21 AM 23.0 °F 8.3 °F 17.6 °F 80% 29.67 in 5.0 mi North 19.6 mph - 0.00 in Snow Light Snow
7:53 AM 24.1 °F 10.6 °F 18.0 °F 77% 29.76 in 10.0 mi North 17.3 mph - 0.00 in   Overcast
8:28 AM 24.8 °F 14.6 °F 17.6 °F 74% 29.72 in 2.0 mi North 10.4 mph - 0.00 in Snow Light Snow
8:38 AM 24.8 °F 13.4 °F 17.6 °F 74% 29.73 in 1.5 mi North 12.7 mph - 0.00 in Snow Light Snow
8:53 AM 25.0 °F 17.1 °F 18.0 °F 75% 29.79 in 1.5 mi North 6.9 mph - 0.00 in Snow Light Snow
9:04 AM 24.8 °F 17.9 °F 17.6 °F 74% 29.73 in 3.0 mi NE 5.8 mph - 0.00 in Snow Light Snow
9:28 AM 26.6 °F - 17.6 °F 69% 29.74 in 6.0 mi Calm Calm - 0.00 in   Haze
9:53 AM 26.1 °F 19.4 °F 19.9 °F 78% 29.81 in 10.0 mi SSE 5.8 mph - 0.00 in   Overcast
10:53 AM 26.6 °F 22.6 °F 19.4 °F 74% 29.74 in 10.0 mi SE 3.5 mph - N/A   Overcast
11:27 AM 30.2 °F 24.3 °F 21.2 °F 69% 29.74 in 10.0 mi Variable 5.8 mph - N/A   Overcast
11:53 AM 28.9 °F 23.9 °F 19.9 °F 69% 29.73 in 10.0 mi ESE 4.6 mph - N/A   Overcast
12:53 PM 32.0 °F 26.4 °F 21.0 °F 64% 29.71 in 10.0 mi ENE 5.8 mph - N/A   Mostly Cloudy
1:07 PM 33.8 °F 29.6 °F 19.4 °F 56% 29.71 in 10.0 mi ENE 4.6 mph - N/A   Scattered Clouds
1:53 PM 33.1 °F 28.7 °F 21.0 °F 61% 29.70 in 10.0 mi Variable 4.6 mph - N/A   Mostly Cloudy
2:15 PM 33.8 °F 23.9 °F 19.4 °F 56% 29.71 in 10.0 mi NNE 15.0 mph - N/A   Overcast
2:53 PM 33.1 °F 21.9 °F 18.0 °F 54% 29.77 in 10.0 mi NNE 18.4 mph - N/A   Mostly Cloudy
3:53 PM 30.9 °F 22.8 °F 19.0 °F 61% 29.81 in 10.0 mi ENE 9.2 mph - N/A   Mostly Cloudy
4:53 PM 28.9 °F 17.3 °F 18.0 °F 64% 29.84 in 10.0 mi NE 16.1 mph - N/A   Overcast
5:53 PM 28.0 °F 19.3 °F 18.0 °F 66% 29.88 in 10.0 mi ENE 9.2 mph - N/A   Overcast
6:53 PM 27.0 °F 17.3 °F 17.1 °F 66% 29.92 in 10.0 mi SE 10.4 mph - N/A   Overcast
7:53 PM 26.1 °F 18.4 °F 16.0 °F 66% 29.95 in 10.0 mi SSE 6.9 mph - N/A   Overcast
8:53 PM 25.0 °F 20.7 °F 17.1 °F 72% 29.96 in 10.0 mi South 3.5 mph - N/A   Overcast
9:53 PM 25.0 °F 19.3 °F 18.0 °F 75% 29.97 in 10.0 mi South 4.6 mph - N/A   Overcast
10:53 PM 26.1 °F - 18.0 °F 71% 29.96 in 10.0 mi Calm Calm - N/A   Overcast
11:53 PM 25.0 °F - 19.9 °F 81% 29.95 in 10.0 mi Calm Calm - N/A   Overcast